Dewpoint
52 52 53 51 50 50 50 50 49 49 50 50 50 50 50 50 50 51 51 50 51 51 51 50 50 49 47 40 36 41 50 48 54 51 46 42 37 38 34 32 33 31 29 24 28 30 28
52 53 50 50 50 50 50 50 49 50 50 50 50 50 50 50 50 50 50 48 49 50 51 51 50 50 43 27 39 43 42 42 53 48 46 44 42 37 34 32 31 26 27 28 28 28 30
52 50 50 50 50 49 49 49 49 49 49 50 50 50 50 50 50 49 48 48 51 54 54 53 52 46 41 32 41 42 36 37 43 50 45 46 43 41 37 35 32 32 30 28 27 29 29
50 50 49 49 49 48 48 49 49 49 49 49 50 50 50 50 50 48 48 47 52 55 54 52 51 44 35 42 39 27 31 35 41 49 50 48 48 44 39 35 34 29 28 24 22 26 27
49 49 49 48 48 48 49 49 49 49 49 49 49 50 50 49 49 48 49 46 48 54 50 50 45 42 30 38 31 31 25 30 36 39 51 46 48 44 40 38 33 31 26 23 24 26 27
48 48 48 48 48 48 49 49 49 49 49 49 49 49 49 49 48 47 45 44 42 38 37 42 32 34 24 26 34 26 18 33 38 48 47 47 44 39 37 35 28 26 25 26 25 23 26
48 48 47 48 48 48 48 49 49 49 49 48 49 49 49 49 48 45 39 35 29 26 34 32 31 26 18 30 31 17 20 29 35 38 34 40 38 33 30 33 33 32 30 29 28 26 25
47 47 47 47 48 48 48 49 49 49 48 48 48 48 49 48 46 44 33 33 35 36 31 32 32 29 21 28 29 18 18 11 17 19 22 29 29 29 31 32 35 36 34 32 30 29 29
47 47 47 47 48 48 48 48 48 48 48 48 48 48 48 47 43 38 35 32 38 40 29 27 30 16 20 22 20 17 18 15 12 14 21 23 21 29 29 30 29 30 32 31 32 30 30
46 47 47 48 48 48 48 48 48 48 48 47 48 47 48 46 32 35 33 33 39 41 13 22 23 18 21 21 11 20 20 17 12 13 14 11 23 17 18 20 24 19 24 26 28 27 25
46 47 47 47 47 47 48 48 48 47 47 47 47 46 47 42 33 24 30 34 42 39 7 21 19 18 23 12 13 10 21 17 15 18 21 11 10 14 16 13 11 15 21 21 20 23 23
46 46 46 46 47 47 47 47 47 47 47 47 46 45 43 34 32 31 32 40 42 18 11 14 14 13 16 13 12 17 13 19 22 20 12 12 16 18 14 16 8 19 16 9 8 14 18
47 47 46 46 46 46 47 47 47 47 47 46 45 43 36 34 24 31 35 39 10 10 9 11 10 13 15 11 9 13 8 15 18 12 7 11 7 11 19 10 11 12 14 4 -3 13 7
46 46 46 46 46 46 46 46 46 46 46 46 44 37 34 29 30 31 30 8 2 12 12 13 11 12 7 12 11 13 7 9 19 18 11 8 3 7 8 12 14 11 13 9 5 2 9
45 45 45 45 46 45 45 45 45 45 45 45 38 31 25 28 30 28 9 1 13 16 16 14 10 7 4 9 14 12 9 11 18 24 17 12 4 8 8 14 10 12 5 16 15 9 7
45 45 45 45 44 45 44 44 44 44 45 44 31 25 23 30 30 24 9 11 15 20 19 15 9 11 7 9 11 9 8 10 16 20 20 15 13 7 8 10 15 14 17 11 11 6 3
45 44 45 43 43 43 43 43 43 43 44 40 28 16 24 29 28 17 13 15 17 20 21 16 13 12 10 13 12 10 10 12 20 18 20 15 18 6 7 6 11 12 14 15 15 11 7
44 44 43 42 42 42 42 42 42 41 44 37 32 14 28 28 11 23 17 19 23 18 21 19 20 17 14 16 15 12 9 12 21 20 15 16 20 10 7 9 8 6 8 11 8 4 8
43 43 42 41 41 41 41 41 40 40 42 35 28 26 28 26 11 14 18 17 20 18 17 18 17 17 18 19 18 14 13 16 19 14 16 18 16 9 5 15 11 4 2 3 7 9 5
43 43 41 40 41 40 40 39 40 39 40 30 27 15 19 24 23 20 17 17 16 18 19 20 19 20 17 18 23 18 15 18 14 13 25 24 18 11 6 5 9 3 -3 -3 5 8 0
42 41 40 40 40 40 38 38 39 37 38 30 31 26 25 18 18 19 20 20 14 13 16 20 17 13 11 14 13 12 10 11 11 16 19 21 14 4 3 5 2 -1 -4 -5 -4 -4 -2
41 40 40 40 39 38 39 38 37 36 36 31 29 27 26 23 22 16 18 14 14 11 14 15 16 10 8 16 13 10 13 12 10 9 5 12 13 5 -1 2 -5 -6 -5 -7 -7 -6 -5
41 41 41 41 38 39 38 38 38 36 34 32 33 32 25 20 17 17 15 11 12 11 11 20 16 5 9 10 14 17 19 11 5 2 2 5 7 12 -0 1 4 -3 -8 -7 -8 -7 -7
43 41 40 40 39 38 36 35 37 35 35 35 33 33 25 16 16 13 13 8 7 9 9 14 14 7 7 14 19 17 15 12 7 3 2 -1 6 10 3 3 -4 -7 -4 -5 -7 -7 -5
42 41 40 38 37 36 35 35 38 36 36 34 36 32 23 14 14 11 12 7 6 8 8 11 7 9 14 16 16 12 12 11 6 2 0 -1 2 3 3 -7 -9 -8 -7 -8 -10 -11 -5
41 39 38 36 35 35 34 34 38 37 37 34 31 31 24 17 11 12 11 8 7 6 5 7 9 13 13 15 12 4 -1 -1 -2 -4 -9 -4 -1 3 -1 -8 -10 -8 -6 -6 -5 -11 -8
39 38 37 36 35 35 36 38 36 37 36 32 27 25 21 13 11 10 8 7 8 7 5 4 7 11 12 11 5 2 0 -4 -5 -13 -13 -12 -10 -11 -6 -9 -9 -9 -6 -2 -10 -8 -6
38 37 36 36 35 36 35 35 37 36 34 28 21 24 19 14 10 8 5 3 4 6 6 7 9 11 9 6 5 2 0 -3 -8 -10 -11 -14 -14 -12 -11 -11 -14 -9 -8 -8 -6 -6 -4
37 36 36 36 37 36 33 36 36 33 29 25 19 16 17 18 14 12 10 11 11 9 8 9 10 8 9 8 6 4 -3 -5 -13 -18 -12 -13 -12 -13 -11 -10 -7 -5 -5 -4 -3 -5 -5
Lifted_Index
13 13 14 14 14 15 15 15 15 15 15 15 15 15 15 15 15 15 15 15 14 14 14 14 14 13 12 11 12 13 13 12 9 8 9 10 10 10 9 10 10 10 10 11 11 11 11
13 13 14 14 14 15 15 15 15 15 15 15 15 15 15 15 15 15 15 15 14 13 13 13 13 13 12 11 12 14 14 12 10 9 9 9 9 10 10 10 10 10 10 11 11 11 11
14 14 14 14 15 15 15 15 15 15 15 15 15 15 15 15 15 15 16 15 14 12 12 12 13 13 12 12 14 15 14 14 12 9 9 9 9 9 10 10 10 10 10 10 11 11 11
14 14 14 14 15 15 15 15 15 15 15 15 15 15 15 15 15 16 16 15 13 11 11 12 13 13 13 14 15 16 15 14 13 10 9 9 9 9 10 10 10 10 8 7 9 10 10
14 14 14 14 14 14 14 14 14 15 15 15 15 15 15 15 15 16 16 15 14 13 13 13 14 13 14 15 16 17 16 15 13 11 9 9 9 9 10 9 8 7 6 6 7 9 10
14 14 14 14 14 14 14 14 14 15 15 15 15 15 15 15 16 17 17 16 15 15 15 15 15 15 15 16 17 17 17 15 13 11 9 9 9 9 9 8 6 5 5 5 7 8 9
13 13 14 14 14 14 14 14 14 15 15 15 15 15 15 16 16 17 17 16 15 15 15 15 16 16 17 18 17 18 18 16 14 12 10 9 8 8 9 8 7 6 6 6 7 8 8
13 13 14 14 14 14 14 14 15 15 15 15 16 16 16 16 17 18 18 17 16 16 15 16 16 17 19 19 18 18 19 17 15 13 12 10 9 9 8 8 7 7 6 6 7 7 7
13 13 14 14 14 14 14 15 15 15 15 16 16 16 16 17 18 19 19 18 18 16 14 15 17 18 19 19 18 19 20 19 16 14 13 11 9 9 8 7 6 6 5 6 6 6 6
13 13 14 14 14 14 15 15 15 15 15 16 16 16 16 18 19 19 19 19 19 16 12 13 17 19 19 19 18 19 19 18 16 14 12 10 8 7 6 6 5 5 4 4 5 4 4
13 14 14 14 14 15 15 15 15 15 15 16 16 16 17 19 20 20 20 19 17 13 9 12 17 19 19 18 18 17 16 15 13 11 9 8 7 6 5 5 5 4 4 4 4 3 2
13 14 14 14 14 15 15 15 15 15 15 16 17 17 18 20 20 21 20 18 14 10 8 12 16 18 18 17 16 14 13 11 9 7 6 6 5 4 3 3 4 3 4 4 3 2 1
13 14 14 14 15 15 15 15 15 15 16 16 17 19 20 21 21 21 20 16 11 9 11 14 16 16 16 15 13 11 9 7 6 5 4 4 3 2 2 2 2 2 2 2 2 1 0
14 14 14 15 15 15 15 15 16 16 16 17 18 20 21 21 21 21 19 13 9 11 14 16 16 15 14 12 11 9 7 5 3 3 2 2 2 2 1 1 1 1 1 0 0 0 0
14 14 15 15 15 16 16 16 16 17 17 18 19 20 21 21 21 20 17 12 11 14 16 17 15 14 12 10 8 7 5 3 2 1 1 1 2 1 1 1 1 1 0 -0 0 0 0
14 14 15 15 16 16 17 17 17 17 17 18 19 19 20 21 21 19 15 13 14 16 16 15 13 12 10 9 6 4 3 2 1 1 1 1 1 1 1 1 0 0 0 0 0 0 0
14 15 15 16 17 17 17 17 18 18 18 18 18 18 20 21 20 17 15 15 17 16 15 13 11 10 9 7 5 3 2 1 1 1 1 1 1 1 1 1 0 0 0 1 1 1 0
15 15 16 17 17 18 18 18 18 18 18 19 18 18 20 20 18 16 16 17 17 15 13 11 10 9 7 6 4 2 1 1 1 1 1 1 1 1 1 1 1 1 1 1 1 1 1
15 16 16 17 18 18 18 19 19 19 19 19 18 18 19 19 16 16 17 17 15 13 11 10 9 8 7 5 3 2 1 1 1 2 2 1 1 1 1 1 1 1 1 2 1 1 1
16 16 17 17 18 18 19 19 19 19 20 19 18 17 18 18 17 16 16 15 13 12 10 9 8 8 7 5 3 2 2 2 2 2 2 2 1 1 1 1 1 1 2 2 2 1 1
16 16 17 17 18 18 19 19 19 20 20 19 17 16 17 17 17 17 15 13 11 11 10 9 8 8 8 6 5 3 2 2 2 2 2 2 1 1 1 1 2 2 2 2 2 2 2
16 17 17 17 18 19 19 19 19 20 20 19 17 17 17 17 16 15 14 12 11 11 11 10 9 8 8 7 6 4 3 3 2 2 2 2 1 1 1 1 1 2 2 3 4 4 4
16 17 17 17 18 19 19 19 19 20 20 19 18 18 17 16 15 13 12 11 11 11 11 11 10 9 8 8 7 5 4 4 3 3 2 2 2 1 1 1 1 2 4 5 5 6 7
16 17 17 18 19 19 20 20 20 20 20 20 19 18 16 14 13 12 12 11 11 11 11 11 10 10 9 8 7 6 5 4 3 3 3 3 2 1 1 1 1 3 6 7 6 7 8
17 17 18 19 19 20 20 20 19 20 20 20 19 18 16 13 13 12 11 11 10 10 10 10 11 11 10 8 7 5 4 4 3 4 5 5 3 2 1 1 2 4 7 8 7 7 9
18 18 19 20 20 20 20 19 19 19 20 20 19 18 16 14 13 13 11 10 10 9 9 10 10 11 9 7 6 4 4 4 4 4 5 5 4 3 2 1 2 5 9 10 8 7 9
19 19 20 20 20 20 19 19 19 19 20 19 19 18 16 14 14 14 12 10 10 9 9 9 9 9 8 7 5 4 4 5 4 4 4 4 4 3 2 2 4 7 10 10 8 8 10
19 20 20 20 20 19 19 19 19 19 20 19 18 18 16 15 15 15 14 13 12 10 9 9 8 8 8 6 5 5 5 5 5 5 5 4 4 4 3 3 5 9 10 10 10 11 12
20 20 20 20 19 20 20 19 19 19 19 19 18 18 17 15 15 16 16 15 13 12 10 9 9 8 8 7 6 6 6 6 6 5 6 5 5 5 5 5 7 10 11 11 12 13 13